Location: Mentone
(34.5413°N, 85.5351°W)
Time: 15:19:18
(UTC-05:00)

Centaur AC-72 - Visible Passes

Search period start: 01 September 2015 00:00
Search period end: 11 September 2015 00:00
Orbit: 1076 x 35280 km, 19.0° (Epoch: 31 August)

Date Brightness Start Highest point End Pass type
(mag) Time Alt. Az. Time Alt. Az. Time Alt. Az.
02 Sep 5.7 04:52:01 10° SW 14:08:00 47° S 14:18:12 10° ESE visible
03 Sep 7.1 01:56:37 18° S 02:33:46 21° SSE 11:25:43 10° ESE visible
06 Sep 5.8 04:35:22 10° SW 13:51:56 47° S 14:02:24 10° ESE visible
07 Sep 7.2 01:42:10 18° S 02:16:30 20° SSE 11:09:53 10° ESE visible
10 Sep 5.8 04:18:44 10° SW 13:35:51 48° S 13:46:36 10° ESE visible
